GFSWCAN_700_rhum_159.txt.gz
RH
76 77 75 60 44 29 21 21 26 20 21 20 17 15 17 22 41 56 61 44 75 72 89 88 90 95 97 88 73 72 82 74 74 63 54 31 24 24 32 32 30 32 38 45 50 58 65 49 44 54 64 72 74 89
75 73 80 81 80 72 62 38 28 27 27 27 28 26 22 20 18 37 42 14 12 16 33 58 76 83 84 82 74 61 41 30 28 20 16 42 44 49 30 39 31 42 41 43 45 44 42 42 50 63 58 56 64 57
81 82 81 78 76 73 74 67 58 56 58 59 55 57 52 48 51 48 42 41 40 37 29 28 32 54 58 64 74 67 82 77 58 47 45 49 56 67 69 60 56 52 49 50 51 44 49 51 51 51 51 61 64 68
89 90 91 86 88 77 69 74 69 69 52 55 63 43 39 37 36 34 32 32 32 31 31 32 28 28 28 28 39 59 54 58 67 60 58 57 55 55 58 60 64 62 61 64 65 60 69 54 60 64 72 74 71 70
85 88 98 97 90 87 79 71 75 74 50 47 50 50 46 44 46 46 44 43 40 35 34 31 30 34 32 31 32 35 56 67 70 81 90 80 68 80 67 64 55 44 38 52 58 63 69 63 57 65 62 59 65 66
92 92 89 92 92 98 90 88 82 86 80 59 61 64 63 57 51 46 45 45 45 39 34 34 29 25 26 26 26 25 26 30 35 47 59 67 71 74 78 68 31 41 51 52 50 45 48 40 33 35 38 50 58 54
81 91 96 96 91 93 94 90 90 96 92 91 91 87 74 66 61 65 60 77 61 51 36 34 38 56 49 43 38 34 28 28 34 40 37 42 65 85 80 77 34 60 65 74 72 72 76 76 60 49 44 38 38 41
62 89 94 97 95 97 97 96 94 89 94 94 95 92 92 78 74 71 63 55 42 42 43 55 74 89 90 69 80 84 91 92 83 78 73 71 93 100 94 36 43 49 53 62 74 60 71 78 68 62 58 65 38 35
69 78 81 95 93 97 96 97 99 97 95 94 91 98 94 81 70 64 56 45 34 35 70 64 67 100 95 92 80 80 79 82 82 71 62 82 94 91 35 48 52 50 56 57 87 93 86 83 78 76 40 33 23 69
77 79 83 97 95 94 96 97 97 96 92 98 96 94 89 77 61 40 21 38 40 64 71 59 73 83 88 95 94 97 93 94 98 82 87 88 60 86 91 87 91 84 74 84 89 87 91 95 98 91 70 65 95 98
93 99 96 89 87 95 93 100 96 95 97 96 88 79 61 49 35 73 96 88 87 80 72 72 66 75 96 88 91 96 98 95 95 93 98 98 77 83 93 81 88 99 72 48 62 85 96 96 94 96 90 86 93 69
91 93 95 97 98 99 97 97 96 95 93 85 67 45 75 96 93 96 97 95 93 90 95 89 84 80 89 83 88 96 92 92 92 96 94 92 86 98 70 64 64 64 65 65 75 83 97 94 95 92 84 91 95 83
93 89 92 96 95 95 90 84 80 81 73 54 94 96 78 86 96 91 84 87 86 90 81 91 74 85 87 96 89 82 74 87 86 97 85 81 92 94 64 64 73 67 56 49 48 59 70 96 92 93 98 95 89 59
85 89 91 92 83 63 51 48 48 64 48 50 77 77 81 90 72 79 93 96 84 80 69 53 44 65 78 90 52 55 55 71 82 91 82 94 66 45 37 50 68 68 70 60 54 62 66 70 76 95 88 63 54 44
89 92 93 93 81 37 27 30 35 36 37 74 75 95 80 79 77 72 72 80 79 79 59 57 42 53 74 94 74 44 65 79 82 83 91 63 51 41 34 29 26 41 66 64 68 70 53 50 59 59 57 52 42 73
96 91 97 96 97 78 34 42 38 84 84 97 84 73 68 70 68 64 46 34 36 42 57 55 69 86 95 92 93 65 88 86 91 84 70 58 56 51 37 26 25 23 21 21 20 33 64 70 58 50 46 48 48 83
88 98 90 99 100 85 52 50 77 97 98 89 64 60 59 49 42 73 80 50 65 70 84 89 80 74 91 95 93 92 83 83 88 87 76 63 49 36 34 35 32 32 33 30 25 17 17 42 72 74 72 71 64 84
95 94 88 96 85 69 57 60 80 88 80 70 62 52 59 56 59 67 77 84 90 91 96 98 90 93 89 89 89 93 94 85 85 57 43 39 36 36 40 38 38 34 31 30 30 24 20 22 51 85 93 96 95 82
92 92 49 36 84 98 99 97 92 92 75 65 61 64 68 72 76 77 74 82 94 99 99 98 96 89 86 88 93 97 92 94 92 67 58 69 67 63 60 49 39 41 37 33 29 28 28 38 54 87 100 99 97 87
89 98 97 55 43 56 77 74 70 71 64 85 85 81 79 79 87 84 93 84 89 98 100 91 77 82 86 89 90 96 96 95 74 66 75 67 60 59 60 58 53 46 42 38 34 28 30 40 58 84 99 99 98 77
98 98 100 92 93 94 95 98 92 78 72 72 73 84 78 79 85 94 94 93 88 82 79 86 92 86 94 96 91 92 94 95 93 95 80 58 52 56 58 56 58 55 49 43 41 33 29 44 67 76 80 79 73 54
97 96 97 96 98 98 93 90 97 96 81 80 79 85 85 84 84 89 96 95 80 72 75 76 74 67 69 89 86 64 62 64 65 59 53 49 48 45 46 44 43 44 44 42 42 40 35 41 68 75 72 63 50 36
92 95 98 93 96 97 97 81 89 90 94 86 79 86 84 81 81 90 96 88 79 72 63 68 78 90 93 81 63 56 56 56 53 50 48 46 44 41 40 41 42 41 41 41 41 45 43 47 64 71 62 50 41 37
97 96 96 97 94 65 55 56 70 75 69 71 72 75 77 76 77 91 91 77 70 66 75 81 88 91 83 73 68 63 56 54 52 46 44 45 45 42 40 38 38 38 37 39 41 44 46 47 60 71 67 61 60 56
99 97 96 97 97 90 81 72 69 67 60 52 51 61 81 81 82 81 69 65 63 65 75 82 78 58 51 54 57 73 82 70 65 49 43 42 41 40 38 37 35 37 40 39 38 42 49 48 62 75 76 71 69 70
98 96 94 96 99 94 97 92 83 74 76 82 83 79 72 77 88 83 77 67 65 78 76 55 40 68 83 75 71 82 78 57 52 51 49 48 46 44 43 42 42 42 47 45 43 44 54 56 59 78 82 82 78 74
98 98 99 94 89 88 90 84 87 96 99 96 84 79 82 88 83 75 72 75 83 79 67 62 67 68 83 69 54 54 49 43 36 32 30 28 30 35 42 44 46 50 53 54 53 54 62 67 63 73 90 90 88 85
98 97 99 99 77 82 99 100 99 95 91 88 85 81 86 92 88 85 90 91 88 81 73 84 89 81 76 76 78 76 63 39 28 26 27 28 28 30 32 34 45 52 60 65 60 57 60 67 72 70 84 95 97 95
98 90 90 97 98 100 96 93 90 96 97 97 95 95 97 93 95 95 91 98 98 93 85 88 93 90 83 74 70 53 38 38 42 42 42 40 39 38 41 40 34 42 57 60 61 56 56 63 64 68 86 97 100 100
100 99 97 100 99 100 98 98 96 98 95 93 96 98 98 98 98 97 97 89 97 95 94 97 96 82 60 50 47 49 50 49 47 45 44 44 44 42 41 44 46 42 40 40 50 61 55 57 77 85 93 98 100 99
100 100 100 99 96 99 96 92 93 98 94 88 93 98 98 98 98 98 98 98 97 98 94 84 75 67 62 60 55 51 45 46 49 50 49 48 49 50 50 49 46 42 39 38 38 53 67 64 76 91 91 94 96 96
69 96 100 94 91 96 97 92 80 83 98 87 84 90 99 99 98 96 94 96 98 95 90 84 76 69 66 61 56 50 33 34 44 54 57 56 52 50 48 48 50 51 47 41 38 40 63 81 82 89 98 99 99 99
64 100 100 100 84 83 99 93 90 89 92 94 97 100 100 99 98 97 99 96 92 97 98 93 87 80 69 58 33 29 40 49 57 62 66 67 67 65 61 58 56 55 55 50 44 42 43 57 83 94 96 96 95 95

GFSWCAN_700_rhum_162.txt.gz
RH
73 61 43 36 21 18 19 15 13 12 20 20 10 12 31 41 44 50 50 58 74 69 81 72 62 69 72 81 64 82 96 91 93 99 96 94 93 89 64 58 47 40 37 38 39 62 58 34 30 44 38 47 50 67
77 79 75 62 52 31 26 28 20 18 14 13 11 11 21 30 38 56 76 60 56 56 88 89 91 87 66 61 67 68 82 75 67 62 47 50 36 32 37 37 39 39 40 40 41 39 25 32 48 51 58 62 63 62
75 76 76 81 76 67 62 42 36 35 27 23 20 16 15 22 36 50 37 56 66 72 79 52 77 78 78 62 66 52 54 42 47 51 34 26 29 25 24 21 20 23 28 36 40 40 46 46 49 56 65 63 58 52
85 77 77 76 70 69 74 71 69 66 59 54 54 54 51 46 40 34 41 29 24 26 68 84 91 85 77 78 72 56 50 39 36 38 29 26 27 29 35 39 36 25 26 34 40 42 44 35 44 58 63 62 61 63
93 94 94 89 80 70 70 71 68 50 52 60 47 42 42 41 36 33 33 33 35 35 35 34 36 47 54 65 64 73 78 77 67 58 51 47 47 54 50 46 32 28 35 46 44 47 51 44 57 66 69 69 66 72
93 96 97 99 94 88 80 75 72 54 50 51 52 48 50 48 43 42 41 38 34 31 28 33 34 36 33 32 33 37 41 54 82 91 89 88 84 82 78 44 11 17 20 24 24 28 33 31 36 39 51 60 61 64
90 96 96 98 100 99 92 79 79 73 56 56 55 54 54 51 48 42 39 38 33 31 29 26 24 26 27 26 27 29 30 31 34 48 45 35 38 48 45 35 15 36 44 42 43 54 54 49 48 41 46 42 37 43
74 98 97 97 93 92 94 88 88 88 83 76 71 66 55 51 47 50 52 49 41 35 34 33 54 62 49 41 42 36 36 33 31 34 37 46 60 73 71 32 53 54 54 56 49 48 54 66 70 67 68 72 76 70
89 92 94 97 96 92 97 92 92 94 92 81 73 66 61 62 62 55 47 35 30 29 32 44 62 65 68 67 75 70 73 74 69 66 65 79 79 73 55 78 91 90 75 64 50 54 75 80 89 84 71 64 64 56
71 77 76 85 92 92 97 94 93 94 92 88 77 71 76 75 65 42 24 17 16 22 36 56 64 81 88 90 88 82 80 83 90 75 89 84 61 70 76 92 98 94 94 80 74 75 69 81 78 85 87 96 55 34
77 76 86 94 94 97 97 98 95 96 88 82 77 80 74 60 38 24 73 74 73 68 67 70 68 70 80 94 94 96 96 92 95 89 97 96 68 67 83 62 81 83 97 99 62 52 82 95 95 95 98 100 85 94
98 95 95 95 94 95 91 94 97 97 91 93 91 79 52 52 66 77 84 80 79 83 90 83 67 67 94 96 87 81 96 92 92 97 96 86 68 86 70 71 82 66 74 60 47 76 84 93 87 92 95 94 90 82
90 97 98 93 90 94 100 98 98 98 96 90 80 48 54 77 94 90 82 86 86 87 94 91 92 94 96 96 96 96 96 94 93 96 94 84 89 97 68 70 79 75 59 59 67 77 82 78 97 96 92 75 97 86
90 94 93 92 98 97 96 96 95 90 79 64 89 70 63 76 77 84 90 93 87 88 79 73 78 78 77 94 76 65 62 85 95 89 87 92 50 41 50 58 64 74 73 74 64 63 64 64 71 87 91 97 82 91
77 83 87 93 85 79 70 72 74 74 58 56 62 70 69 82 70 78 82 92 94 87 85 70 51 36 50 92 88 57 61 79 80 84 94 73 52 44 35 33 28 29 48 59 62 71 68 60 83 98 100 98 70 58
81 88 87 96 82 46 30 30 37 48 52 58 61 79 77 66 70 78 71 66 80 80 63 74 68 86 89 91 91 66 64 76 89 95 85 67 61 52 39 32 27 27 28 23 19 19 35 73 64 55 57 54 51 55
97 96 96 93 98 57 30 31 34 50 70 80 76 69 59 54 52 58 75 60 39 51 56 89 83 78 96 93 89 89 77 91 88 92 76 58 45 35 36 38 37 34 33 32 31 25 18 21 67 78 69 63 62 59
99 99 99 100 99 62 41 39 78 85 80 74 65 60 57 53 57 61 72 89 88 95 97 98 92 94 95 96 97 96 96 92 98 90 53 48 46 44 40 37 34 34 33 30 29 28 23 22 29 75 92 87 78 72
82 86 97 96 73 49 49 48 63 74 72 64 62 56 44 62 81 85 85 81 82 94 98 96 91 81 83 92 90 87 94 99 100 82 60 77 76 62 58 58 54 40 36 36 34 30 26 27 31 44 75 93 95 98
76 88 52 55 88 72 67 86 72 66 61 58 68 81 77 82 80 81 80 83 87 92 100 95 84 89 85 84 78 72 84 90 100 84 80 88 73 54 52 51 52 52 45 42 38 35 28 27 37 48 64 88 99 98
76 81 92 83 43 59 70 73 69 64 78 63 82 74 85 82 79 86 96 89 77 77 82 82 89 93 85 80 95 97 93 94 90 91 92 74 54 47 50 50 51 51 50 46 41 39 37 30 38 57 67 79 91 93
97 95 94 96 95 89 84 95 97 98 90 91 80 78 80 81 86 86 95 94 73 90 82 90 92 77 60 61 80 87 70 61 57 64 62 54 49 44 44 43 43 42 42 41 40 40 41 40 38 57 74 76 73 68
93 94 97 98 97 95 97 86 88 93 94 94 82 86 83 82 90 81 86 84 82 87 76 68 64 70 81 92 92 82 63 57 57 55 52 50 48 45 42 40 40 40 38 38 40 41 42 43 43 48 70 69 55 46
95 96 98 96 94 93 84 80 84 95 98 86 78 72 67 68 69 77 72 65 68 61 60 69 74 79 85 90 92 83 80 78 68 61 55 51 47 44 42 41 38 38 37 36 36 38 40 44 47 50 65 73 64 56
99 98 93 95 97 89 80 72 70 63 56 55 52 55 80 78 83 78 62 54 50 51 62 67 72 71 67 52 43 65 77 74 84 84 56 47 45 43 42 41 39 39 38 39 40 42 44 46 54 56 64 77 78 72
96 97 97 97 100 89 90 81 77 75 77 80 74 68 63 70 84 78 67 61 64 70 69 71 65 43 41 51 62 64 84 86 57 48 43 42 41 42 42 42 42 41 40 43 45 48 50 53 60 66 68 80 87 87
97 99 100 98 99 100 100 98 98 96 94 91 83 74 89 94 82 74 66 66 74 72 70 75 75 65 66 81 75 55 55 58 56 45 34 26 23 24 24 24 26 35 44 48 53 55 54 60 66 74 76 79 92 95
97 96 97 100 88 90 87 81 86 98 96 98 99 99 96 90 82 74 73 70 80 79 84 82 77 81 81 74 70 72 73 71 62 42 30 26 27 28 28 27 28 31 36 50 55 60 62 58 60 69 81 84 96 99
100 92 88 96 94 100 100 100 100 98 93 98 100 97 97 95 96 91 87 91 98 96 98 94 91 95 96 96 88 72 67 56 41 44 46 44 43 44 43 41 41 42 40 39 43 51 59 59 57 64 74 82 95 100
95 96 96 98 99 99 98 98 99 92 93 98 100 96 95 97 97 98 99 99 98 98 96 94 100 100 99 90 70 54 49 49 51 50 50 49 48 48 47 47 45 43 41 42 44 41 38 48 61 61 80 92 95 100
46 78 99 100 92 98 95 94 94 96 100 100 100 99 97 98 99 99 97 97 97 98 98 100 100 97 85 70 63 58 54 48 42 38 40 46 49 49 48 48 48 50 50 48 44 43 41 43 66 75 89 100 100 100
50 58 87 95 88 84 88 89 89 95 93 96 98 98 98 97 99 94 86 96 96 95 90 87 90 87 75 70 67 60 48 38 45 54 60 63 64 62 61 59 55 52 52 54 53 49 47 50 66 90 94 100 100 100
80 100 100 100 92 81 72 77 84 88 96 93 94 100 98 95 97 89 87 86 91 90 87 85 83 83 83 76 66 41 30 31 34 33 30 30 35 45 54 59 62 62 61 61 60 59 54 50 55 72 96 100 100 100

GFSWCAN_700_rhum_168.txt.gz
RH
48 24 22 16 13 19 25 64 94 97 97 97 97 97 98 97 96 95 95 97 96 98 91 90 88 86 100 99 99 95 98 98 98 98 97 95 96 93 93 86 81 82 92 95 97 96 89 57 57 52 45 40 34 33
70 47 26 26 18 15 16 14 16 40 83 92 90 92 93 95 96 97 97 99 90 99 96 96 98 98 97 97 97 97 94 94 96 97 96 95 88 83 76 81 78 84 77 78 78 67 64 56 52 47 46 42 38 33
75 69 46 30 27 22 17 13 11 19 33 39 41 46 54 72 86 93 95 95 97 96 96 96 97 97 97 98 98 94 96 88 93 92 94 94 92 82 76 68 65 66 71 79 70 67 64 52 48 46 44 39 35 35
88 79 68 48 32 29 26 22 17 15 27 35 41 48 62 75 80 80 80 83 83 92 94 97 96 96 92 88 90 93 95 94 95 96 96 94 91 82 73 65 68 65 60 57 58 55 54 54 48 45 47 51 54 55
90 88 72 65 47 45 54 50 34 27 23 26 37 44 77 79 90 78 58 75 73 74 83 97 97 96 94 91 94 93 88 98 95 95 86 68 53 46 43 45 42 42 42 41 40 42 41 39 39 38 36 33 32 39
97 95 85 68 61 54 49 55 53 50 50 46 37 58 54 52 74 60 93 92 71 83 83 98 97 96 89 82 65 59 58 47 41 44 48 39 30 23 23 19 19 23 21 20 21 23 23 22 21 21 22 23 26 46
94 100 97 87 72 63 57 54 57 55 50 43 40 37 37 37 28 26 50 64 34 84 75 86 92 89 80 72 63 57 55 44 37 32 29 27 25 27 26 23 20 19 17 16 15 17 15 18 18 18 18 19 21 20
92 97 94 97 89 76 67 52 50 55 53 49 46 43 40 40 38 36 34 34 36 67 54 45 59 63 64 60 55 54 44 30 26 28 25 24 26 28 24 16 25 34 34 33 38 42 41 39 32 29 31 35 34 35
92 96 94 95 94 82 73 63 50 48 49 49 49 47 44 40 39 37 34 32 31 31 29 28 37 44 39 35 31 30 28 27 25 25 25 24 24 20 24 35 49 54 55 65 68 70 69 63 40 25 24 27 29 35
95 92 98 92 92 86 77 79 63 61 64 58 49 43 39 38 34 33 34 35 33 29 29 25 25 27 35 34 32 34 34 39 56 51 48 52 41 45 49 51 72 74 71 82 76 69 72 67 49 34 38 44 71 77
78 86 89 97 89 87 87 85 78 72 68 64 60 55 45 34 23 17 16 25 25 34 31 35 44 47 59 63 60 71 70 70 72 74 76 78 62 70 75 70 62 60 69 68 71 66 53 35 42 52 84 95 89 70
67 65 74 96 86 93 95 92 89 83 79 72 65 50 38 26 32 57 66 70 71 69 60 67 69 80 83 93 86 82 74 73 81 93 88 74 67 72 72 65 60 60 73 62 48 40 44 70 90 96 87 85 90 89
93 81 76 87 97 98 96 97 90 88 78 75 69 48 39 48 67 69 82 93 97 88 65 64 76 83 99 88 78 73 77 83 96 98 87 74 80 80 59 52 50 64 70 66 52 61 66 65 78 80 86 92 95 74
90 91 99 98 95 94 98 94 88 84 84 79 62 39 44 54 73 91 99 95 94 94 92 79 79 76 86 80 80 84 90 88 99 98 87 81 76 69 44 45 36 32 54 66 62 50 53 54 55 85 88 93 82 59
71 78 89 98 96 90 94 95 90 87 88 85 51 48 66 67 80 91 91 91 84 84 74 80 74 81 85 90 73 57 61 61 66 80 74 89 69 52 50 45 38 32 27 24 28 38 51 66 71 71 76 79 81 79
59 60 76 94 98 90 87 85 93 94 87 54 46 52 69 74 74 77 81 94 93 86 87 76 71 50 45 85 94 79 56 50 91 98 86 84 77 65 56 44 35 33 31 29 31 29 23 19 48 59 60 71 76 73
68 72 80 87 90 96 97 97 96 84 58 48 71 65 71 75 66 64 66 65 80 95 71 70 59 76 86 84 96 86 80 82 94 93 89 65 53 49 40 31 34 36 34 33 31 30 30 26 22 53 96 76 64 56
85 79 75 92 72 51 50 59 62 56 63 55 66 68 69 60 55 54 57 64 62 41 46 54 84 76 90 97 96 94 94 95 90 90 89 54 49 48 47 45 42 39 37 33 34 34 33 29 28 26 31 57 74 80
76 80 68 67 72 32 28 35 46 61 73 72 69 64 64 56 58 68 68 76 62 72 91 88 88 86 79 73 78 79 76 72 85 88 88 67 59 74 66 52 48 50 52 50 43 38 37 34 29 29 35 42 78 100
83 76 73 72 55 28 30 28 57 64 62 70 63 55 59 51 58 76 81 82 80 77 90 94 82 82 76 79 78 68 62 64 68 73 93 91 73 75 70 44 41 48 49 50 50 47 43 40 36 30 29 39 54 74
87 85 81 73 65 36 37 55 42 46 47 42 50 80 95 94 88 82 79 83 84 81 82 88 90 90 84 85 78 79 80 91 98 91 94 92 83 65 46 43 44 46 44 43 43 43 42 40 40 38 35 37 54 68
95 91 88 78 83 66 66 69 75 81 78 87 79 66 86 88 87 81 86 89 84 82 85 86 84 80 76 76 66 66 89 93 81 76 72 56 54 49 46 44 43 42 41 38 38 38 39 40 40 40 40 40 51 70
90 92 92 93 97 88 76 66 72 84 85 90 93 95 94 92 90 92 89 77 76 83 86 87 83 83 83 74 68 71 81 83 82 73 61 53 49 49 48 46 45 43 41 41 40 39 38 37 37 38 40 43 44 62
97 99 97 96 92 97 91 90 86 81 80 84 90 90 89 87 85 89 80 62 65 80 85 83 73 68 72 76 78 78 81 81 74 72 73 71 64 58 51 45 42 40 38 37 38 38 37 37 37 38 40 43 46 51
96 96 90 91 94 88 90 86 84 94 93 96 94 91 82 68 62 59 46 42 46 57 59 53 51 57 66 64 64 65 54 40 44 56 72 64 56 49 47 45 43 42 40 39 39 39 39 39 40 43 46 49 51 54
97 99 98 91 92 89 98 85 80 81 72 68 71 75 70 69 69 65 53 46 44 45 45 45 49 52 56 63 51 38 38 34 36 51 56 46 40 36 32 27 24 21 20 20 20 25 33 40 46 48 52 58 61 64
100 98 96 96 98 99 98 86 91 95 89 88 85 79 86 90 84 68 56 51 48 50 50 50 58 68 73 73 68 61 55 46 46 49 51 52 51 47 40 33 27 25 22 21 20 20 24 32 45 51 53 55 57 63
98 94 96 97 96 98 100 100 100 99 98 95 97 98 96 93 78 70 65 62 63 60 59 64 74 85 87 89 88 74 71 67 63 67 66 57 48 41 36 33 31 31 34 34 32 30 29 30 35 43 49 54 58 61
79 92 94 97 100 100 98 98 98 98 96 97 96 88 77 60 59 66 79 83 71 57 54 58 69 78 86 97 97 88 88 84 82 72 57 54 50 47 46 42 42 43 43 42 42 41 40 38 38 39 40 41 49 62
23 23 26 43 76 95 99 99 97 100 98 100 96 97 93 80 77 70 60 63 71 69 69 71 73 78 94 95 98 94 91 92 83 71 61 51 48 47 47 46 45 46 46 46 45 45 44 44 43 41 42 42 41 50
29 31 31 30 30 36 72 95 97 99 99 99 100 99 100 100 96 85 70 66 74 73 66 73 84 100 100 98 98 97 92 84 77 67 58 54 53 50 39 31 35 41 45 46 47 47 46 47 48 49 48 47 49 62
32 38 40 38 36 40 48 51 59 72 81 93 96 100 98 100 98 88 78 83 96 85 84 86 94 97 97 97 98 98 99 98 80 66 62 52 33 30 29 30 34 41 49 55 58 58 59 58 58 58 56 53 56 70
34 39 44 46 41 38 57 56 42 41 55 65 68 81 93 95 96 95 89 94 100 99 96 98 99 100 98 98 98 100 98 96 87 68 50 36 30 22 20 19 18 18 20 24 32 44 52 58 64 67 67 66 64 66

GFSWCAN_700_rhum_171.txt.gz
RH
46 28 21 15 16 19 63 95 96 96 97 93 89 88 92 88 85 98 96 88 97 94 85 85 91 89 98 99 95 97 98 97 99 100 99 96 98 94 89 82 84 90 98 95 97 96 94 72 70 70 62 58 50 45
66 35 29 22 16 15 23 47 79 96 96 97 98 98 100 100 94 94 97 96 98 99 98 95 91 78 82 81 97 97 97 98 96 98 96 97 91 96 94 90 92 95 89 88 81 75 70 66 62 58 54 54 48 40
79 62 32 28 25 20 19 49 69 69 93 94 95 97 87 80 91 77 99 96 92 98 98 98 91 89 86 88 97 100 96 97 98 97 94 96 95 93 92 95 88 90 94 95 95 91 84 75 64 55 50 47 47 49
79 75 56 44 34 29 20 22 43 59 85 93 93 95 96 97 97 98 99 98 93 97 96 98 97 98 98 100 99 98 99 98 98 97 97 96 96 95 95 82 80 76 83 85 83 74 65 62 58 52 50 49 46 42
86 69 68 55 55 56 50 33 26 34 39 62 84 84 85 95 95 96 97 97 98 96 92 95 97 96 96 96 96 97 97 97 96 97 96 96 93 86 79 80 74 70 65 63 64 64 60 58 56 54 53 51 50 49
94 79 64 61 56 53 54 54 50 40 41 72 70 87 90 97 91 93 90 96 96 97 91 94 97 97 96 97 96 95 95 96 90 89 93 90 83 74 55 54 57 52 53 47 43 44 41 41 42 42 40 38 34 30
89 86 77 67 59 55 55 57 53 47 41 44 45 28 51 68 88 84 72 77 82 84 93 94 96 96 96 96 94 81 66 60 57 65 66 61 49 42 31 25 23 21 21 21 22 21 21 21 20 20 20 19 19 18
98 93 85 77 67 56 54 55 56 54 45 42 38 38 34 30 33 54 41 70 93 90 78 90 95 95 95 88 70 61 50 42 36 32 29 27 26 25 23 21 20 19 18 17 16 16 15 16 22 30 32 35 34 30
100 95 94 90 79 63 48 46 48 51 49 46 44 43 42 40 36 33 32 40 80 62 42 69 83 82 69 65 54 50 45 30 27 26 24 24 24 22 20 20 22 26 30 27 34 39 42 47 51 50 52 40 25 24
94 92 93 93 88 75 66 53 57 54 55 50 45 42 40 40 37 34 33 32 34 31 32 30 52 49 48 38 33 30 27 25 21 23 20 21 19 18 20 24 31 43 51 50 53 59 66 62 49 48 52 29 27 35
84 80 89 88 88 83 77 66 66 66 53 49 40 33 30 27 25 23 25 26 28 30 30 32 32 31 42 37 31 33 39 38 55 59 52 62 49 45 59 60 54 54 51 59 63 57 48 44 30 36 40 58 85 86
66 63 82 80 88 85 80 75 66 58 50 47 39 34 28 20 23 34 49 58 48 58 72 63 50 45 49 52 60 66 66 63 75 78 72 62 57 65 70 71 60 48 50 62 56 46 37 54 74 80 84 84 81 75
73 75 83 85 88 80 79 77 70 57 51 49 41 32 34 38 55 61 76 83 75 65 67 70 75 76 81 76 70 64 66 77 76 84 78 65 62 74 75 64 62 47 57 67 59 61 57 62 78 78 78 79 81 53
84 79 85 85 81 84 80 79 73 60 54 50 41 34 36 56 78 98 90 78 74 61 61 69 64 82 85 70 64 66 82 85 98 94 70 61 72 71 49 46 39 34 51 62 63 52 46 56 54 63 84 84 85 78
66 87 96 96 98 91 86 86 78 71 61 56 43 47 61 75 89 95 89 83 85 79 70 72 71 74 74 72 69 64 80 80 80 70 74 77 71 68 48 47 43 36 30 28 27 31 40 55 67 72 78 87 89 82
53 56 76 82 84 86 88 89 80 79 71 52 44 61 61 71 80 86 85 82 82 72 74 68 65 71 76 83 84 65 60 47 65 82 87 78 72 64 58 51 43 35 33 30 29 30 28 23 20 48 69 92 88 84
59 57 78 94 91 80 79 83 84 82 58 51 61 63 75 66 66 70 82 88 85 83 83 73 70 65 55 76 90 90 65 72 94 95 93 72 66 65 52 39 34 35 35 34 33 31 30 30 27 22 40 60 71 65
67 70 83 90 89 95 92 86 81 64 57 62 67 65 68 63 56 59 65 73 75 94 90 68 76 75 90 96 99 93 95 94 96 93 96 76 49 50 52 51 50 45 39 35 30 29 32 32 30 29 27 32 53 67
64 67 66 77 56 39 45 53 54 48 67 60 67 68 66 59 55 56 60 61 72 72 55 56 68 83 81 84 86 94 94 94 95 94 89 78 60 62 70 63 47 43 45 46 46 43 34 34 35 32 28 28 31 45
77 82 77 72 64 28 25 28 47 61 76 72 64 58 57 54 52 54 77 83 88 87 93 96 93 90 81 85 85 75 68 62 63 72 80 90 84 72 72 61 41 40 43 44 48 48 44 40 38 37 35 32 36 50
79 74 72 71 51 32 33 42 34 56 57 56 64 56 78 77 71 78 83 84 87 83 80 85 95 94 87 81 76 73 79 82 82 82 86 88 86 80 65 44 38 40 41 40 42 42 41 41 40 39 39 39 38 48
86 85 82 80 74 67 52 49 60 57 47 50 59 57 59 88 88 86 85 81 78 86 78 87 90 96 89 80 72 68 78 86 85 84 84 78 63 54 49 45 43 42 41 40 38 38 38 37 36 34 35 39 43 45
91 84 85 85 87 85 74 60 59 73 85 87 87 95 92 88 88 93 90 77 75 83 86 87 86 86 86 82 80 68 68 68 72 72 71 66 58 51 46 43 41 39 38 38 40 39 36 37 36 35 34 35 38 45
95 88 87 88 90 93 88 88 83 79 79 80 86 93 95 95 90 91 86 78 80 82 89 91 95 97 84 74 72 73 71 68 67 66 61 61 63 60 53 49 46 43 42 40 38 38 38 37 36 36 36 38 41 43
91 92 91 91 88 80 78 80 79 83 84 85 92 97 92 87 86 76 64 59 60 56 68 76 77 65 57 60 66 65 61 58 50 40 42 53 57 53 49 46 46 45 43 41 39 38 38 40 40 40 42 45 47 50
88 99 97 96 88 83 90 83 79 80 85 94 97 94 85 80 78 72 63 54 49 45 47 51 49 42 44 53 61 61 52 41 39 38 47 53 52 44 40 36 31 27 25 21 19 18 18 19 25 36 44 47 49 51
99 98 98 99 100 100 99 89 92 100 97 93 92 88 87 92 85 70 64 61 56 53 52 50 50 52 63 68 74 76 67 60 56 55 53 49 49 53 52 48 40 32 27 24 22 20 19 18 19 21 28 39 46 50
44 79 97 100 100 98 100 100 100 99 98 97 98 96 95 90 82 72 68 66 68 73 67 63 60 60 62 72 87 83 83 76 69 55 53 56 57 55 50 44 39 37 34 32 30 30 30 30 29 27 26 27 33 40
14 19 33 62 92 100 100 100 100 100 97 99 99 98 99 80 92 91 82 78 77 72 69 64 56 52 61 81 92 97 98 92 84 76 73 73 67 55 51 48 46 44 43 42 43 43 42 42 41 40 38 35 34 35
10 14 18 19 20 23 36 70 96 100 100 100 98 98 98 96 89 91 86 71 65 63 56 56 59 60 60 63 82 94 99 99 98 93 87 80 66 56 48 46 47 46 41 36 37 39 42 44 44 44 43 43 42 39
11 12 16 21 21 25 32 29 30 36 61 89 99 98 94 100 100 98 91 84 79 72 65 62 63 64 65 71 80 95 100 99 99 96 94 82 66 57 53 50 40 29 26 30 36 40 44 46 46 46 46 48 50 50
13 15 18 18 21 29 36 35 31 27 27 28 36 60 82 90 96 90 78 74 78 82 72 75 84 82 72 75 93 93 91 99 97 97 98 83 69 60 53 37 25 18 17 18 22 32 47 54 56 56 56 56 59 58
15 19 20 22 25 28 34 43 38 30 26 24 25 39 64 69 80 88 80 82 82 81 78 79 83 98 94 96 100 100 99 98 98 98 98 92 78 59 37 24 18 17 17 16 17 20 24 31 42 53 63 69 73 75

GFSWCAN_700_rhum_174.txt.gz
RH
36 29 24 17 22 41 89 96 96 86 95 88 86 95 96 96 96 96 85 80 96 98 96 98 98 98 97 87 97 97 99 99 100 100 99 95 98 97 94 83 77 75 98 99 100 98 94 68 71 71 67 65 61 60
55 31 27 22 22 50 72 94 96 97 88 81 80 80 84 88 88 98 76 79 93 96 97 99 94 88 96 96 97 84 92 97 93 97 96 98 92 90 88 85 82 95 88 84 90 84 75 71 74 75 74 70 62 60
69 46 36 33 24 29 58 81 92 95 97 93 88 96 81 86 94 85 82 94 95 97 100 96 96 99 100 98 96 97 81 89 96 98 91 86 90 87 85 91 85 89 79 98 86 84 79 82 78 70 73 71 57 52
66 60 55 52 46 39 39 67 86 90 94 96 96 94 86 87 92 94 85 88 98 97 96 99 99 99 97 94 91 83 90 98 98 98 98 97 96 93 92 81 77 89 87 90 99 94 92 85 82 81 73 60 54 49
70 62 54 54 54 52 46 48 78 75 81 96 96 97 97 99 100 96 98 88 99 97 92 95 100 98 91 87 76 76 84 85 90 96 98 98 95 94 86 87 96 89 91 95 97 93 82 72 68 65 61 58 55 54
85 66 59 56 52 50 50 45 60 76 41 85 94 96 96 97 97 98 97 97 97 97 97 96 96 99 100 99 100 100 99 98 98 98 97 98 96 94 96 97 87 80 74 66 68 66 67 65 64 61 58 56 54 51
93 84 66 58 53 54 53 48 42 48 37 34 86 95 95 94 93 95 93 95 97 97 96 96 96 97 97 100 94 96 96 96 96 97 96 95 95 94 83 60 70 73 71 70 64 60 49 41 33 29 26 25 24 21
91 90 82 67 55 50 50 54 47 41 37 37 35 34 39 76 79 91 96 96 97 95 92 94 96 96 96 96 94 96 95 95 94 90 95 95 89 75 48 41 30 25 22 22 21 21 21 20 18 16 15 15 17 21
87 86 87 77 62 49 46 49 51 49 47 46 42 38 38 44 50 80 93 93 93 88 92 93 94 96 96 96 95 95 88 64 54 31 30 31 28 25 23 22 21 21 20 18 16 16 17 22 28 34 38 41 42 44
76 82 86 81 69 64 52 53 53 51 47 45 42 40 38 35 33 43 64 55 33 36 82 94 93 93 93 93 82 59 40 28 26 26 25 26 24 23 22 21 20 19 20 26 35 40 44 48 47 55 48 37 50 39
68 63 80 81 73 66 60 60 58 50 44 39 35 36 37 36 34 33 32 31 32 31 55 75 71 76 75 53 38 31 27 24 39 27 24 27 32 18 18 17 20 24 33 43 44 48 46 43 50 43 36 42 32 36
63 81 72 73 76 69 64 60 53 51 41 33 27 23 20 16 18 23 33 28 29 36 37 41 39 46 42 37 33 32 32 28 88 42 36 66 39 36 37 44 48 48 47 44 50 51 39 32 41 55 55 56 71 56
67 74 64 68 76 70 65 58 49 45 40 34 28 26 35 40 53 56 75 84 64 37 32 35 42 40 41 38 44 45 55 62 55 69 95 94 46 57 58 60 59 48 44 45 54 54 45 53 51 63 67 70 72 66
82 88 83 77 74 70 66 62 51 45 40 32 28 30 35 61 84 87 90 69 49 44 50 50 47 58 60 60 61 62 73 67 100 99 88 57 60 65 69 59 51 44 40 53 55 45 44 57 53 64 75 76 78 81
53 82 82 76 76 74 70 63 53 50 41 38 38 43 76 90 98 91 76 64 63 78 85 88 70 72 71 65 66 69 85 99 95 89 92 59 69 71 51 45 40 33 29 28 36 48 54 53 56 61 56 70 80 78
39 39 47 73 75 74 70 66 63 56 51 40 40 56 76 83 89 88 96 84 72 83 85 81 71 74 70 76 64 56 74 72 92 56 57 71 67 64 48 49 47 40 33 30 28 29 27 22 20 29 62 76 85 87
53 56 68 86 78 71 67 72 61 62 54 44 54 56 60 69 80 88 86 83 84 78 66 64 62 53 60 76 100 97 74 55 67 86 79 75 73 64 58 54 45 37 33 32 31 30 30 29 28 25 24 50 78 81
53 54 68 82 89 83 71 72 73 66 51 50 53 62 63 59 60 64 73 81 80 79 76 63 69 66 81 96 99 84 76 72 74 96 91 67 61 63 57 45 36 35 35 35 33 30 31 32 32 31 30 31 41 63
63 59 61 69 60 70 64 64 57 54 55 55 60 60 63 59 54 53 56 61 66 70 86 67 53 65 69 72 88 97 97 90 93 98 93 69 51 56 64 62 52 46 46 47 46 44 40 34 35 35 32 30 29 32
66 71 67 60 60 35 29 31 45 46 66 65 65 63 60 60 57 53 56 67 67 69 74 60 68 83 86 80 87 88 93 94 95 95 92 85 70 62 66 66 48 37 40 46 48 48 48 44 40 39 37 36 34 32
78 75 73 67 58 53 27 30 31 50 65 66 67 65 62 61 60 53 60 79 85 82 76 79 86 94 92 86 79 74 72 69 67 72 74 77 85 84 76 62 41 38 39 42 42 42 42 42 42 40 40 40 38 37
78 80 80 78 74 64 47 31 38 40 48 51 50 48 47 60 90 88 85 88 77 76 82 82 82 93 94 87 82 80 85 88 91 92 90 84 75 64 53 48 44 42 41 40 38 37 37 36 35 34 34 34 34 37
76 89 83 80 83 80 76 60 61 65 74 74 62 71 74 64 72 93 94 81 74 85 86 83 85 98 98 82 81 80 71 78 82 78 74 69 63 59 54 49 43 40 38 38 38 38 36 36 36 34 33 33 34 35
52 74 84 80 84 91 85 87 82 66 65 80 80 84 87 88 90 95 93 89 85 80 81 84 86 87 92 93 88 78 74 77 81 78 72 65 60 58 55 51 48 45 43 41 39 38 36 36 34 34 34 34 34 36
12 51 88 94 82 75 75 71 72 79 91 82 86 96 94 90 93 89 80 73 84 74 74 91 94 94 93 76 70 74 78 74 68 63 56 48 43 45 46 44 43 43 42 41 40 37 35 34 35 37 37 38 41 43
24 72 94 99 96 86 88 77 77 78 75 85 92 98 96 96 96 90 71 64 65 57 52 61 73 76 66 58 62 70 72 66 55 42 34 32 34 38 41 40 39 36 33 30 26 22 19 17 16 16 18 25 35 43
24 54 74 89 100 100 99 95 93 100 99 97 92 83 97 96 97 78 68 60 60 56 51 49 48 51 54 56 61 60 60 61 55 49 47 46 45 43 41 41 43 42 38 33 29 26 24 22 21 20 20 20 23 28
6 8 14 33 75 94 100 100 100 100 100 96 95 98 95 88 91 80 75 66 68 65 64 64 61 60 56 56 65 73 77 75 70 67 63 57 49 48 51 53 49 43 37 36 35 34 32 31 30 31 32 32 31 29
9 7 8 8 11 16 32 63 88 96 96 98 99 93 95 88 88 89 92 91 88 73 78 82 77 69 63 59 61 67 72 85 86 80 79 68 61 62 66 64 55 50 47 44 41 40 39 39 40 40 40 39 40 39
31 13 9 8 10 13 14 17 20 29 50 81 95 92 96 94 88 100 100 99 99 98 97 88 80 73 55 48 48 52 58 78 90 94 94 88 82 81 78 68 56 46 44 44 42 39 36 35 36 39 42 43 43 43
61 33 14 10 10 14 15 15 16 19 19 20 28 36 48 72 80 84 90 98 98 98 96 92 79 67 56 55 59 62 68 81 99 96 98 100 98 94 87 72 56 47 43 35 26 21 22 26 32 38 42 44 47 48
74 60 31 16 13 14 14 16 17 18 20 22 23 23 23 23 22 30 60 78 90 92 97 98 96 87 70 58 63 67 72 81 89 100 100 100 98 97 92 69 58 49 36 24 17 14 14 16 26 39 47 51 54 56
83 80 52 25 20 17 18 19 20 19 18 21 23 23 23 23 25 21 23 28 46 69 93 97 85 75 80 77 88 89 85 87 98 99 97 96 100 97 96 76 57 39 25 19 16 14 15 17 22 29 39 53 63 68